Location: ???????
(54.6339°N, 39.4245°E)
Time: 14:34:38
(UTC+00:00)

Cosmos 1697 Rocket - Pass Details

Date: 19 May 2025
Orbit: 830 x 844 km, 71.0° (Epoch: 20 June)

Event Time Altitude Azimuth Distance (km) Brightness Sun altitude
Rises 19:35:16 0° 322° (NW) 3,408 7.6 -12.2°
Reaches altitude 10° 19:38:05 10° 309° (NW) 2,470 6.2 -12.4°
Maximum altitude 19:42:37 25° 256° (WSW) 1,632 4.3 -12.6°
Drops below altitude 10° 19:47:08 10° 203° (SSW) 2,460 4.7 -12.9°
Enters shadow 19:47:35 - 200° (SSW) 2,599 4.8 -12.9°
